Location: Brno
(49.2000°N, 16.6330°E)
Time: 10:17:36
(UTC+02:00)

ISS - Pass Details

Date: 21 May 2021
Orbit: 417 x 422 km, 51.6° (Epoch: 13 June)

Event Time Altitude Azimuth Distance (km) Brightness Sun altitude
Rises 22:08:14 0° 273° (W) 2,364 0.7 -11.7°
Reaches altitude 10° 22:10:21 10° 278° (W) 1,501 -0.3 -11.9°
Maximum altitude 22:13:40 54° 357° (N) 516 -3.0 -12.2°
Drops below altitude 10° 22:16:59 10° 76° (ENE) 1,504 -1.2 -12.6°
Enters shadow 22:18:23 - 80° (E) 2,066 -0.5 -12.7°
